| time (UTC) | temp F | wind direction | speed knots | gust knots | rain 1hr in | rain 24hr in | rain mn in | humidity % | barometer mb |
| 20260507172502 | 63 | 7 | 5.2 | 12.2 | 0.00 | 0.05 | 0.00 | 6 | 972.0 |
| 20260507163502 | 63 | 7 | 5.2 | 12.2 | 0.00 | 0.05 | 0.00 | 6 | 972.0 |
| 20260507154502 | 63 | 4 | 4.3 | 11.3 | 0.00 | 0.05 | 0.00 | 6 | 973.0 |
| 20260507145502 | 63 | 4 | 4.3 | 11.3 | 0.00 | 0.05 | 0.00 | 6 | 973.0 |
| 20260507140502 | 63 | 4 | 4.3 | 11.3 | 0.00 | 0.05 | 0.00 | 6 | 973.0 |
| 20260507131502 | 61 | 352 | 4.3 | 11.3 | 0.00 | 0.05 | 0.00 | 6 | 974.0 |
| 20260507122502 | 61 | 352 | 4.3 | 11.3 | 0.00 | 0.05 | 0.00 | 6 | 974.0 |
| 20260507113503 | 57 | 333 | 2.6 | 8.7 | 0.00 | 0.05 | 0.00 | 8 | 974.0 |
| 20260507104502 | 57 | 333 | 2.6 | 8.7 | 0.00 | 0.05 | 0.00 | 8 | 974.0 |
| 20260507095502 | 52 | 286 | 1.7 | 5.2 | 0.00 | 0.05 | 0.00 | 9 | 974.0 |
| 20260507090502 | 52 | 286 | 1.7 | 5.2 | 0.00 | 0.05 | 0.00 | 9 | 974.0 |
| 20260507081502 | 52 | 286 | 1.7 | 5.2 | 0.00 | 0.05 | 0.00 | 9 | 974.0 |
| 20260507072502 | 49 | 184 | 1.7 | 4.3 | 0.00 | 0.05 | 0.00 | 9 | 974.0 |
| 20260507063502 | 49 | 184 | 1.7 | 4.3 | 0.00 | 0.05 | 0.00 | 9 | 974.0 |
| 20260507054503 | 49 | 206 | 0.9 | 0.0 | 0.00 | 0.05 | 0.00 | 9 | 973.0 |
| 20260507045503 | 52 | 317 | 2.6 | 7.8 | 0.00 | 0.37 | 0.00 | 9 | 971.0 |
| 20260506195504 | 56 | 3 | 2.6 | 6.1 | 0.01 | 0.37 | 0.00 | 8 | 970.0 |
| 20260506195205 | 56 | 3 | 2.6 | 6.1 | 0.01 | 0.37 | 0.00 | 8 | 970.0 |
| 20260506190504 | 56 | 3 | 2.6 | 6.1 | 0.01 | 0.37 | 0.00 | 8 | 970.0 |
| 20260506181504 | 56 | 3 | 2.6 | 6.1 | 0.01 | 0.37 | 0.00 | 8 | 970.0 |